This is the latest recevied weather packets stored in our database for station/object KK7PZE-13. If no packets are shown the sender has not sent any weather packets the latest 10 day(s).
| Time | Temp. | Humidity | Pressure | Rain* | Wind** | Luminosity | Snow |
|---|---|---|---|---|---|---|---|
| 1777588559 | 30° C | 11% | 1006.4 hPa | 0 mm | - | - | - |
| 1777587959 | 29.44° C | 11% | 1006.4 hPa | 0 mm | - | - | - |
| 1777586159 | 29.44° C | 11% | 1006.9 hPa | 0 mm | - | - | - |
| 1777585558 | 30° C | 10% | 1007.2 hPa | 0 mm | - | - | - |
| 1777584959 | 29.44° C | 10% | 1007.2 hPa | 0 mm | - | - | - |
| 1777584359 | 28.89° C | 11% | 1007.4 hPa | 0 mm | - | - | - |
| 1777583760 | 29.44° C | 10% | 1007.5 hPa | 0 mm | - | - | - |
| 1777583159 | 29.44° C | 10% | 1007.5 hPa | 0 mm | - | - | - |
| 1777582559 | 30° C | 10% | 1007.8 hPa | 0 mm | - | - | - |
| 1777581960 | 28.89° C | 10% | 1007.7 hPa | 0 mm | - | - | - |
| 1777581359 | 29.44° C | 10% | 1007.9 hPa | 0 mm | - | - | - |
| 1777580758 | 29.44° C | 10% | 1007.8 hPa | 0 mm | - | - | - |
| 1777580161 | 30° C | 10% | 1008.1 hPa | 0 mm | - | - | - |
| 1777579559 | 30° C | 10% | 1008.2 hPa | 0 mm | - | - | - |
| 1777578959 | 30° C | 10% | 1008.3 hPa | 0 mm | - | - | - |
| 1777578361 | 29.44° C | 10% | 1008.5 hPa | 0 mm | - | - | - |
| 1777577759 | 29.44° C | 10% | 1008.7 hPa | 0 mm | - | - | - |
| 1777576561 | 28.89° C | 10% | 1009.1 hPa | 0 mm | - | - | - |
| 1777575959 | 29.44° C | 10% | 1009.3 hPa | 0 mm | - | - | - |
| 1777575359 | 30° C | 10% | 1009.4 hPa | 0 mm | - | - | - |
| 1777573558 | 28.33° C | 11% | 1009.8 hPa | 0 mm | - | - | - |
| 1777572959 | 28.89° C | 11% | 1009.8 hPa | 0 mm | - | - | - |
| 1777572359 | 27.78° C | 12% | 1009.9 hPa | 0 mm | - | - | - |
| 1777571758 | 28.33° C | 12% | 1010.1 hPa | 0 mm | - | - | - |
| 1777571159 | 27.78° C | 12% | 1010.3 hPa | 0 mm | - | - | - |
* Rain latest hour (hover to see other rain measurements)
** Current wind speed in m/s (hover to see current wind gust speed)